Theta_e
307 306 306 306 306 306 306 306 307 307 307 306 307 307 307 307 307 307 308 308 308 308 308 308 308 309 309 309 308 309 308 304 302 303 306 308 303 304 305 304 305 307 310 312 310 311 313 314 313 313 314 315 317 318 315 317 316 314 322 323 320 320 318 319 320 316 313 314 316 314 313 313 313 319 333 348 348 349 349 345 346 343 344 346 346 344 342 343
306 307 306 306 306 306 306 306 306 306 307 306 306 307 307 307 307 307 307 307 308 308 308 308 308 309 308 308 308 308 307 304 304 306 310 304 304 305 304 304 305 309 311 312 310 309 313 315 313 313 317 317 316 316 316 317 316 317 320 320 322 322 318 318 319 317 313 314 314 315 313 312 315 312 324 352 350 351 360 349 345 347 345 343 342 341 341 341
306 307 306 306 306 305 306 306 306 306 306 306 306 306 306 307 307 307 307 307 308 308 308 307 308 308 308 308 308 308 305 303 307 311 308 304 305 305 305 305 304 309 311 312 312 309 310 312 311 315 318 318 318 316 316 317 316 319 318 318 323 320 317 317 316 315 314 314 313 315 313 313 316 309 325 356 350 354 364 352 350 352 347 346 342 340 341 341
306 306 306 306 306 305 305 305 306 306 306 306 306 306 306 307 307 307 307 307 307 307 307 307 307 307 308 308 308 306 303 305 308 307 307 308 309 307 306 304 304 310 312 311 312 310 309 309 311 317 318 319 321 315 315 318 316 317 316 319 322 315 316 316 314 315 314 313 313 314 313 315 314 313 336 356 350 350 351 348 354 353 346 345 342 339 340 340
306 306 306 306 305 305 305 305 305 305 305 306 306 306 306 306 307 307 306 307 307 307 307 307 307 307 307 308 307 305 304 307 304 308 313 313 313 312 310 305 304 309 313 312 311 311 310 310 313 317 319 320 320 316 318 319 314 315 316 318 319 313 314 315 315 316 314 313 313 313 313 314 312 317 337 346 347 349 349 349 348 346 344 343 341 340 340 340
305 305 306 306 305 305 305 305 305 305 305 305 306 306 306 306 306 306 306 307 307 307 307 307 307 307 308 306 306 304 304 303 303 309 313 313 311 312 315 309 304 310 315 313 311 311 311 312 313 316 319 320 319 319 321 317 311 315 316 315 316 314 314 314 314 314 313 313 313 314 311 313 314 315 323 324 327 327 333 347 344 342 342 341 340 339 340 341
305 305 305 305 305 305 305 305 305 305 305 305 305 305 306 306 306 306 306 306 306 306 306 307 306 307 307 305 307 307 305 305 304 305 308 309 306 308 316 310 304 312 315 312 310 311 313 313 313 316 319 318 319 321 320 315 311 314 317 315 315 314 314 313 314 313 313 313 312 313 310 313 315 313 314 313 319 326 334 344 344 342 341 340 340 339 340 341
305 304 304 304 305 305 304 304 304 304 305 305 305 305 306 306 306 306 306 306 306 306 306 306 306 307 306 305 309 311 309 309 303 303 304 304 304 307 314 308 307 314 313 311 310 311 313 313 313 315 318 319 319 319 317 316 314 313 315 316 314 314 315 313 313 312 312 313 312 312 312 314 314 313 312 313 331 345 346 345 343 342 340 340 340 339 340 339
304 304 304 304 304 304 304 304 304 304 305 304 305 305 305 306 305 305 305 306 306 306 306 306 306 306 306 305 307 307 307 307 302 305 304 303 306 308 310 308 309 313 312 311 309 309 312 314 314 315 318 318 316 316 316 317 317 314 314 315 314 314 315 313 313 314 312 313 313 312 314 315 311 313 311 318 339 349 345 345 344 341 341 341 340 339 339 340
304 304 304 303 303 303 303 304 304 304 304 304 305 305 305 305 305 305 305 305 305 306 306 305 306 306 305 306 305 302 304 306 307 313 309 306 308 307 309 309 312 314 311 310 308 309 312 312 314 316 318 318 316 316 315 315 316 315 314 314 314 314 313 311 313 314 311 311 313 312 314 315 310 314 312 320 339 347 344 345 343 341 341 340 340 339 339 339
304 304 304 303 303 304 304 304 304 304 304 304 304 305 305 305 304 305 305 305 305 305 306 305 306 306 306 307 305 302 305 309 310 314 312 310 309 308 309 312 314 314 313 309 307 309 310 311 315 316 318 317 315 315 314 314 314 313 313 312 313 313 311 311 312 312 311 311 314 312 313 314 310 314 313 321 339 346 345 346 342 343 342 340 341 339 339 338
303 303 303 303 303 303 304 304 304 304 304 304 304 304 305 304 304 305 305 305 305 305 305 305 306 306 307 308 307 304 306 312 311 310 310 311 312 311 311 313 314 314 315 311 308 309 310 313 316 318 319 317 316 313 313 313 312 311 312 312 315 316 312 312 313 312 312 311 314 312 311 314 313 314 312 323 342 346 344 346 344 343 342 341 341 340 339 337
303 302 303 303 303 303 303 304 304 304 304 304 304 304 304 304 304 304 304 304 305 305 305 306 307 305 306 308 307 302 303 309 309 307 306 307 311 313 312 314 313 315 316 312 309 309 309 314 317 320 318 316 319 314 311 312 310 311 311 312 315 315 314 312 311 311 312 312 313 311 312 317 318 315 311 325 344 347 344 347 344 344 343 342 341 339 340 337
302 303 302 302 302 303 303 303 304 304 303 303 304 304 304 304 304 304 304 304 304 305 305 306 307 306 307 308 303 300 301 302 303 304 303 303 309 314 313 313 314 314 315 311 310 310 309 312 315 317 314 315 318 312 312 313 314 313 309 314 315 311 314 316 313 313 312 312 314 311 313 316 315 314 311 326 344 349 347 348 344 344 343 341 342 340 340 338
302 303 302 301 302 303 303 303 304 303 303 303 303 303 303 303 303 303 303 303 303 304 306 307 307 307 306 306 301 302 305 304 304 302 302 303 307 313 313 314 314 313 313 310 311 310 309 311 313 315 315 315 313 313 317 315 318 317 310 318 318 311 316 318 313 314 312 311 313 311 314 317 313 313 308 321 342 350 348 349 344 344 344 341 342 340 340 338
302 302 302 301 302 303 303 303 303 303 303 303 303 303 303 302 301 301 301 302 302 304 306 307 307 307 307 306 302 304 306 307 308 305 304 303 305 310 312 313 313 312 312 310 311 311 310 312 313 314 314 312 311 317 321 316 321 323 314 319 318 311 315 315 311 314 313 311 312 311 315 318 312 310 307 317 340 349 346 347 345 344 343 342 342 340 340 339
302 302 302 302 302 303 303 302 302 303 303 303 303 303 301 301 301 301 300 301 303 306 307 308 306 307 309 304 303 306 306 307 308 308 309 305 305 309 311 311 310 309 309 309 310 310 310 312 312 314 314 312 313 316 318 315 317 320 317 318 316 313 312 311 313 313 311 313 313 312 314 317 312 309 309 314 329 343 347 346 344 344 343 342 343 341 340 339
302 302 302 302 302 302 303 302 302 303 302 302 302 301 301 303 304 302 301 303 306 305 306 308 306 307 309 305 305 306 306 307 307 308 310 308 306 309 311 311 309 307 308 309 310 309 311 313 314 316 313 311 313 314 318 320 319 318 317 316 314 313 312 312 315 313 312 313 313 313 313 314 312 311 314 311 317 335 343 343 343 344 344 343 342 341 341 339
302 302 302 302 303 303 303 302 302 302 302 302 302 300 302 307 305 304 304 306 306 303 304 309 307 305 306 307 306 305 305 308 308 309 311 310 308 310 311 310 310 310 311 312 312 310 312 314 314 316 313 311 313 314 318 322 321 320 320 319 315 311 312 313 314 314 312 312 314 314 313 316 318 318 322 318 319 329 334 338 344 344 344 344 342 342 340 340
302 302 302 302 303 302 302 302 302 302 302 302 301 300 301 308 311 309 308 307 306 304 304 308 308 308 306 307 307 306 308 309 309 310 311 310 308 310 312 311 312 313 314 316 314 312 314 315 314 316 317 316 315 315 318 318 316 317 316 316 314 310 314 314 314 315 311 313 317 314 316 324 325 325 327 325 327 330 329 335 343 343 343 342 341 341 341 341
301 302 302 302 303 302 301 302 302 302 302 302 301 300 300 306 311 310 307 307 307 306 307 307 307 309 307 306 307 306 308 309 310 311 311 311 309 311 313 312 314 314 315 317 316 313 314 316 316 317 318 317 316 317 318 314 313 314 314 313 312 311 314 313 312 313 312 315 316 315 323 328 325 327 329 329 332 332 329 331 337 340 342 342 341 342 342 342
301 301 302 302 302 302 301 301 302 302 302 301 301 300 300 301 303 303 303 305 305 305 307 306 305 306 306 305 306 306 308 310 312 312 310 311 311 312 314 313 315 316 314 315 317 315 315 318 319 316 315 316 315 315 317 317 316 316 315 313 313 313 313 314 317 316 313 314 315 318 326 324 321 326 328 330 332 332 331 331 332 335 338 339 339 341 345 346
301 301 301 301 302 301 301 302 302 301 301 301 300 299 300 299 301 303 302 303 305 305 306 307 306 306 305 305 305 307 309 310 312 312 309 311 313 314 314 314 315 316 314 315 318 318 317 318 319 313 310 314 316 315 317 320 319 318 317 314 314 314 312 315 320 319 315 314 315 320 325 324 323 326 327 328 331 332 332 331 331 332 334 335 333 335 342 346
301 301 301 301 301 301 302 301 301 301 301 301 300 300 300 302 303 303 302 304 308 307 305 306 307 307 306 307 307 308 310 310 311 312 310 313 314 313 314 314 315 315 314 315 316 318 318 316 315 311 310 314 316 315 316 317 315 316 319 318 316 315 313 315 318 321 321 317 315 319 326 328 326 328 328 327 331 332 331 331 332 331 331 332 332 333 336 339
301 301 301 301 301 301 301 301 301 301 301 300 301 302 303 303 303 303 304 308 314 312 307 307 307 308 308 307 309 310 310 311 312 312 310 312 313 313 313 313 315 315 314 314 315 317 317 313 311 311 311 313 315 315 316 317 314 314 316 318 317 316 315 316 317 322 325 318 312 316 325 325 325 330 329 329 333 332 331 331 331 331 330 331 332 332 332 333
301 300 301 301 301 301 300 301 301 300 300 300 301 303 303 302 303 302 305 312 316 313 309 309 309 310 309 309 310 311 312 312 313 311 309 311 312 313 313 312 314 315 313 314 315 317 316 313 312 313 312 312 314 314 313 315 316 314 315 316 315 316 315 316 316 316 321 318 313 316 322 321 325 331 329 330 334 332 331 332 331 331 330 330 330 329 329 330
300 300 301 300 300 301 300 301 301 300 301 302 301 302 302 302 303 303 307 312 312 311 310 308 308 308 309 311 309 311 316 314 311 310 309 311 311 312 313 312 313 312 312 314 316 317 316 314 314 314 313 312 313 314 312 313 315 316 316 314 313 314 315 319 318 315 319 319 318 322 325 327 330 331 329 332 335 333 333 332 331 331 329 329 329 327 327 328
300 300 301 300 300 300 300 300 300 299 301 301 301 301 301 302 303 305 311 314 310 309 311 308 307 308 309 311 310 313 315 313 312 310 308 311 311 312 313 313 314 312 312 315 317 316 316 317 316 314 314 313 313 316 313 310 313 317 316 313 313 315 316 319 318 322 324 316 317 324 325 328 329 328 331 334 335 335 335 333 331 332 329 328 327 326 326 325
300 300 300 300 300 300 300 300 300 299 298 299 300 300 301 303 305 308 314 317 312 308 310 309 309 308 309 311 311 312 311 311 313 311 308 310 310 312 312 311 313 312 310 314 317 315 313 315 316 313 314 315 315 316 312 310 313 314 313 313 315 317 319 322 320 324 326 318 318 323 324 330 331 330 334 335 335 336 335 333 332 330 328 327 325 324 324 323
300 300 300 300 300 300 300 299 299 298 298 300 300 300 302 305 309 312 313 316 315 310 308 308 309 309 310 312 311 311 311 310 310 309 308 310 309 310 310 309 311 313 312 312 315 316 313 314 315 314 315 315 314 312 309 310 311 311 313 313 315 320 325 331 331 325 320 320 323 322 323 333 334 333 336 336 334 335 333 333 331 329 327 325 323 322 322 321
300 300 300 300 300 300 300 300 300 300 301 301 300 301 306 310 313 315 315 314 315 313 308 306 308 310 311 312 311 311 310 309 308 308 309 309 310 310 310 309 311 313 313 311 313 316 313 312 313 316 317 313 313 312 308 309 311 314 318 315 314 321 325 328 331 325 319 320 323 320 320 328 332 333 336 335 333 331 331 332 330 328 326 323 321 320 319 319
299 299 300 299 300 300 300 300 300 301 301 299 299 306 312 312 312 314 316 314 316 317 312 308 308 310 311 311 311 310 310 309 309 309 309 309 310 311 311 314 314 313 313 313 315 315 314 315 315 314 316 313 313 314 309 309 311 314 318 316 315 320 319 318 321 323 323 320 317 317 322 329 334 335 335 334 333 330 329 329 327 327 325 322 319 318 317 316
299 299 299 299 299 299 299 299 299 299 299 298 302 312 315 313 313 313 312 314 318 318 316 313 309 309 311 310 310 309 309 310 309 309 309 309 311 311 311 314 315 317 318 317 315 314 314 317 315 311 313 314 314 314 312 312 312 313 315 316 318 320 317 316 318 319 321 319 313 316 327 335 336 335 333 332 331 329 327 325 324 324 322 320 317 315 315 314
299 299 299 299 299 299 298 298 298 299 299 300 307 313 313 312 316 315 311 312 317 316 315 314 311 309 310 309 310 309 309 310 310 310 309 309 311 311 312 311 311 317 321 317 314 316 318 318 317 314 313 314 313 314 316 314 312 312 314 315 318 323 323 319 321 322 318 318 319 323 332 336 335 333 331 330 328 326 325 323 322 320 318 317 315 313 313 312
299 299 299 299 299 299 298 298 299 300 299 303 311 314 311 311 315 317 315 313 315 317 317 314 310 309 309 309 309 309 312 311 309 310 310 310 311 312 314 312 310 315 318 316 314 315 315 320 323 317 311 313 313 313 313 312 312 312 312 314 315 320 327 323 321 324 323 324 326 327 329 329 329 330 329 328 327 324 324 322 320 319 316 314 313 312 312 311
299 300 300 300 300 299 298 299 300 299 300 306 311 311 310 312 315 317 315 313 315 318 318 314 311 310 309 311 309 308 313 314 310 312 312 310 311 312 313 313 312 313 317 322 322 317 314 320 323 317 312 313 313 313 312 312 316 314 311 315 315 314 322 322 316 318 325 327 323 322 330 330 329 331 329 328 328 324 322 321 318 317 315 313 313 312 311 310
300 301 301 302 302 300 299 300 300 299 302 308 309 310 312 313 315 315 314 314 316 319 317 314 313 311 309 312 311 308 312 312 310 314 314 311 313 313 312 313 312 311 315 323 322 318 320 323 321 315 312 312 312 313 313 312 315 316 314 315 313 311 316 320 319 320 326 329 323 322 332 333 329 331 330 328 329 326 322 319 317 315 314 312 312 311 310 309
301 302 303 304 304 303 301 300 299 301 307 311 309 310 313 315 314 314 314 314 314 314 314 311 311 312 311 313 313 309 311 312 312 314 313 313 317 316 314 316 313 311 314 316 316 315 318 320 319 315 311 314 318 316 313 312 311 313 315 314 313 316 317 316 318 319 319 324 326 327 331 330 328 329 329 329 330 326 321 318 316 314 313 312 311 310 309 308
302 303 305 306 305 304 302 300 301 305 310 312 311 311 312 314 315 315 315 314 311 310 311 310 309 311 312 314 314 311 310 312 312 312 312 315 319 317 319 321 316 313 313 312 316 317 318 319 318 316 313 315 322 322 317 314 311 312 314 313 317 324 322 316 318 320 320 324 326 329 330 329 329 329 329 329 328 325 321 318 315 313 312 311 310 309 308 308
303 306 308 305 304 303 301 301 305 310 311 312 312 312 309 309 312 316 315 312 310 309 310 309 309 313 313 313 313 311 312 312 313 319 320 320 321 318 319 322 319 316 313 310 314 316 316 316 317 321 323 320 320 323 322 318 313 314 317 314 316 320 317 315 316 316 321 328 327 328 330 328 327 327 326 326 324 321 319 316 314 312 310 310 309 308 307 307
303 308 309 305 303 302 302 305 310 313 314 313 311 309 308 308 311 313 311 309 309 308 307 307 310 315 316 314 312 315 322 322 324 329 327 322 323 320 317 320 321 318 311 309 315 316 313 316 321 329 334 328 322 321 321 319 314 319 326 323 320 318 316 319 317 314 322 330 327 327 330 328 324 321 320 320 319 318 315 313 312 311 310 309 307 307 306 306
304 310 309 305 303 303 305 309 312 313 315 314 310 307 308 309 310 309 307 307 307 306 306 306 309 313 316 317 318 322 327 326 326 330 327 323 324 321 317 320 321 319 316 315 319 321 324 330 330 328 328 326 322 319 319 318 317 323 329 326 326 325 322 329 329 321 323 326 324 326 330 327 320 317 316 316 315 314 313 312 311 309 309 307 306 306 305 305
305 308 307 305 304 304 307 309 310 311 313 314 311 307 306 307 307 307 305 305 306 306 308 309 310 313 313 315 320 323 323 322 323 326 326 325 324 320 321 324 323 323 324 322 321 323 329 333 331 326 327 329 326 321 320 320 323 329 328 323 326 328 325 332 337 331 328 327 328 331 331 326 319 315 314 313 312 311 311 310 309 308 307 306 305 305 304 304
305 307 307 306 304 305 308 311 312 312 312 313 312 308 306 306 305 304 303 305 307 309 312 311 310 311 313 315 319 320 320 322 321 321 324 326 324 320 323 326 327 328 327 323 321 322 322 325 328 329 327 328 330 326 324 324 327 330 325 320 322 323 323 325 326 331 331 323 325 332 330 324 319 314 313 312 311 310 310 309 308 307 306 306 305 304 303 303
304 308 309 307 304 305 310 313 314 314 315 316 314 311 309 309 309 307 305 306 307 308 311 311 308 310 314 317 319 318 319 323 322 321 324 326 323 320 321 325 330 333 329 325 326 328 323 320 328 336 331 329 332 330 326 326 327 325 321 318 320 321 323 322 323 333 331 320 321 331 327 320 317 314 312 312 310 310 309 308 307 306 305 305 304 303 303 302
306 309 309 308 307 308 312 312 311 315 318 316 313 313 314 313 312 311 309 308 308 308 310 311 311 313 316 318 320 319 319 321 321 322 326 326 322 319 319 323 329 331 328 324 325 329 325 317 320 329 330 330 330 326 322 323 327 326 321 318 319 315 316 323 329 331 328 322 324 327 322 318 317 314 312 311 310 310 308 307 307 306 305 304 304 303 303 302
307 309 310 310 310 311 313 312 312 315 317 315 314 316 318 314 312 311 309 308 308 309 311 312 311 313 314 317 322 321 318 319 321 322 324 323 321 320 319 320 324 326 327 325 324 327 328 321 318 319 321 321 320 318 318 319 321 322 319 318 317 314 318 331 333 323 321 326 328 323 319 319 317 314 312 311 309 309 308 307 306 305 304 304 303 303 302 301
307 310 311 310 312 314 313 313 314 316 315 316 317 316 316 314 312 310 309 310 310 310 314 317 312 311 314 318 321 321 318 320 321 320 322 322 323 324 323 319 320 324 327 325 324 327 327 322 318 317 317 316 316 316 317 317 316 316 317 317 317 316 321 328 324 316 321 331 329 321 318 317 314 312 311 310 308 308 307 305 304 304 303 303 302 302 301 301
307 309 311 311 312 313 314 313 314 315 315 315 316 317 315 314 312 309 309 313 313 311 314 318 313 311 314 318 322 323 320 322 322 318 320 322 323 325 325 321 319 322 328 329 324 323 324 320 316 316 316 316 316 316 315 315 316 315 315 315 315 316 317 318 316 315 320 325 321 316 315 313 311 310 309 308 307 306 305 304 303 303 303 302 302 301 300 300
308 309 311 313 314 314 314 314 315 317 316 315 317 318 315 312 312 310 308 311 314 312 312 313 310 309 311 313 319 320 317 322 324 320 320 322 321 323 326 323 320 321 327 329 324 320 321 321 317 316 317 316 315 315 315 315 315 315 314 314 314 315 315 315 315 316 316 316 314 313 313 311 309 308 307 307 306 305 304 303 302 302 302 301 301 300 300 299
306 307 310 313 317 315 314 315 316 317 315 314 318 319 314 309 309 310 308 308 310 311 311 311 310 310 309 310 313 313 312 317 319 318 322 322 318 319 321 319 320 325 328 326 324 323 323 320 317 317 319 318 315 315 315 315 315 316 314 314 314 315 315 314 314 314 315 314 313 313 313 311 308 307 307 306 305 304 303 302 301 301 301 300 300 300 299 299
304 306 308 312 315 314 314 314 312 313 315 316 317 316 312 310 311 313 312 310 310 310 310 310 311 311 312 311 310 309 309 311 311 311 313 313 311 313 314 314 316 323 327 324 323 323 321 318 318 319 321 319 316 317 318 318 322 320 315 313 314 313 313 313 312 312 313 313 314 315 313 309 307 306 306 305 304 303 302 302 301 300 300 300 299 299 299 298
Wind_Speed
14 13 14 14 14 14 13 14 13 14 14 13 14 14 14 14 14 14 14 14 14 14 14 15 15 15 15 15 16 16 18 19 20 19 13 22 24 16 17 16 9 7 14 10 11 11 8 5 5 7 7 3 1 1 2 1 1 2 3 3 1 3 4 4 6 5 2 4 6 8 7 4 2 1 2 6 9 6 8 7 4 5 6 3 3 9 20 21
15 13 13 14 14 14 14 14 14 14 14 13 13 13 14 14 14 14 14 14 14 14 14 14 15 15 15 15 15 16 18 20 18 17 25 30 24 20 20 17 10 10 17 13 13 13 9 4 5 7 5 2 1 1 2 1 2 2 3 3 3 5 4 5 6 4 2 4 7 9 4 2 2 2 2 4 2 3 8 6 5 6 6 6 6 13 17 18
14 14 14 14 14 14 14 14 14 14 14 14 13 13 14 14 14 14 14 14 14 14 14 14 15 14 15 14 14 16 17 15 9 14 27 25 19 22 21 21 15 14 19 14 13 11 8 9 12 8 4 2 1 1 2 1 2 2 3 2 5 5 5 5 5 6 5 5 8 9 3 3 5 3 2 5 4 3 4 3 4 3 4 5 5 9 13 16
13 14 14 15 15 15 15 14 14 14 14 14 14 14 13 14 14 14 14 14 14 14 14 14 14 14 14 14 14 16 13 8 4 9 14 10 11 17 18 24 20 16 18 13 9 9 9 12 12 6 4 1 2 2 3 3 2 2 3 4 6 3 4 5 6 7 7 5 4 6 5 4 5 1 3 8 6 2 3 6 6 9 10 9 8 8 11 14
13 14 14 14 15 15 15 15 15 14 14 14 14 14 14 14 13 13 13 13 14 13 14 13 14 14 14 14 14 13 6 3 4 3 2 3 6 9 13 21 22 19 17 13 9 10 11 11 8 4 4 2 0 2 2 5 3 2 2 5 5 3 4 6 5 7 4 3 4 4 5 4 1 2 4 9 6 4 6 8 9 13 14 13 12 11 10 11
13 14 13 14 15 15 16 15 15 14 15 14 14 14 14 14 13 13 13 13 14 13 13 13 14 14 15 15 11 6 1 2 5 2 1 5 11 8 8 18 23 20 18 16 12 12 9 8 6 3 3 2 3 3 4 3 3 2 3 2 5 5 6 5 3 4 2 2 5 3 3 4 2 2 4 7 5 5 4 8 11 12 13 12 11 11 11 12
14 14 13 14 14 15 15 15 15 14 15 14 14 14 14 14 13 13 13 13 13 13 13 12 13 13 14 13 5 1 2 6 16 10 9 15 17 13 6 19 24 22 20 17 14 10 6 8 7 5 5 2 3 5 4 1 1 3 4 4 5 6 7 7 5 6 4 5 8 3 5 7 3 2 2 3 3 4 1 7 12 11 11 10 9 10 11 12
14 14 15 15 15 15 16 16 15 15 15 15 15 15 14 14 14 14 13 13 13 12 12 12 12 12 13 10 1 1 1 14 27 20 19 22 19 13 8 21 23 23 22 19 15 10 6 8 7 5 5 4 4 4 3 0 0 3 5 4 3 5 7 7 7 8 7 7 6 4 8 9 4 3 1 1 3 1 5 9 11 12 11 9 9 9 9 9
15 15 15 16 16 16 17 16 15 15 15 15 15 15 15 15 14 14 13 13 13 12 12 11 12 10 10 7 1 1 6 17 23 19 20 19 15 8 13 23 24 23 19 17 16 12 7 7 7 5 6 6 4 3 3 3 3 5 7 5 4 6 7 6 6 8 6 5 1 2 9 9 4 2 2 4 1 6 9 10 11 13 12 9 9 9 9 9
15 15 15 16 16 16 16 16 16 15 15 15 16 15 15 15 15 14 13 13 12 12 11 10 10 8 7 4 3 2 8 11 12 11 11 11 8 9 18 22 25 23 16 12 14 13 7 6 7 5 5 4 4 2 3 5 3 5 6 4 6 7 7 3 5 7 3 4 3 4 9 6 5 1 1 4 2 7 10 10 11 13 12 11 9 8 8 9
15 15 16 16 16 15 15 15 16 15 15 16 16 16 16 15 15 14 13 13 12 11 10 9 9 7 5 2 3 5 6 5 3 5 3 4 10 16 20 23 27 24 16 10 13 16 8 7 8 5 2 2 3 2 2 5 3 4 5 2 6 6 6 4 6 7 1 3 6 8 6 3 4 0 4 5 5 8 11 11 10 10 10 10 10 8 7 7
15 16 16 17 16 16 15 15 15 16 16 16 16 16 16 16 16 15 14 13 12 11 9 9 7 4 3 1 6 15 8 2 2 7 7 2 9 17 18 22 27 24 20 12 14 18 10 10 11 5 2 3 3 1 2 4 2 2 4 2 7 6 6 5 5 5 4 3 6 8 1 4 1 2 5 5 5 6 11 11 9 9 8 8 8 7 6 6
16 17 16 16 16 15 15 15 15 16 16 16 17 17 17 17 16 15 14 13 11 10 9 7 5 2 1 1 11 20 15 12 10 11 13 8 7 14 13 17 22 22 21 14 11 16 13 10 9 4 2 4 1 2 2 1 1 1 2 1 3 6 5 4 2 2 5 3 4 7 1 6 5 5 7 4 6 7 9 9 9 8 7 7 7 6 6 6
16 16 16 17 17 15 15 15 15 16 16 17 17 17 18 17 17 16 14 13 12 10 7 4 3 2 2 6 15 15 14 17 19 23 22 13 10 12 10 12 16 18 19 12 4 9 18 11 4 2 1 3 2 2 2 5 2 0 1 1 2 1 4 6 3 2 5 2 4 5 2 5 4 6 8 5 7 9 10 9 9 8 7 7 7 7 6 6
17 17 17 18 18 16 15 15 15 15 16 17 18 18 19 19 18 16 14 13 10 6 4 2 4 3 1 10 15 9 8 13 20 28 23 13 13 11 11 13 13 16 17 12 3 4 16 12 3 2 3 1 2 2 2 3 4 2 1 2 3 2 5 8 3 3 4 1 3 5 2 5 4 6 7 4 7 8 10 10 10 9 9 8 8 7 7 5
18 17 17 17 18 16 15 15 16 16 16 17 18 19 20 20 19 16 14 11 5 3 3 2 6 5 1 6 7 3 7 11 15 21 20 18 16 10 11 12 9 13 13 11 9 5 10 10 2 2 2 0 4 4 2 2 3 3 2 3 1 2 2 4 2 2 2 1 2 3 2 3 2 4 7 2 4 5 7 8 10 10 10 9 8 7 6 4
17 16 17 17 16 16 15 15 15 16 17 17 19 21 21 18 16 13 10 5 4 6 6 3 6 5 4 7 6 5 7 10 10 10 14 21 19 12 10 8 5 9 8 5 8 6 4 5 1 1 1 2 3 5 3 1 2 3 2 2 2 2 1 1 2 4 3 3 2 3 1 4 1 4 8 6 2 4 6 6 7 8 7 7 7 5 5 5
17 16 16 16 15 15 15 15 15 15 16 18 19 22 18 10 5 4 6 10 8 5 4 2 4 4 5 9 7 5 4 4 7 7 12 17 18 16 10 6 5 9 6 2 4 4 2 1 2 2 1 2 3 5 4 5 5 3 1 3 1 0 1 2 2 2 4 4 0 1 2 4 5 8 8 8 6 3 6 3 3 5 5 6 5 5 6 6
16 15 15 16 14 14 15 15 15 15 16 18 19 18 7 5 5 6 9 10 7 4 3 4 6 3 3 5 4 5 9 8 7 8 12 16 16 15 8 6 7 8 6 2 3 4 2 2 3 3 3 4 5 6 7 7 7 7 4 5 4 1 2 5 4 6 1 3 2 4 2 3 7 9 10 9 6 3 3 5 1 3 4 5 5 5 5 6
16 15 14 15 14 14 15 14 14 15 15 16 19 13 1 3 2 3 3 4 6 4 2 4 9 5 4 2 4 10 11 6 3 6 13 18 17 12 5 4 5 4 4 5 5 3 3 4 3 5 6 6 7 7 7 6 7 7 5 5 4 2 3 5 4 7 2 2 3 2 5 8 8 8 9 7 8 11 9 7 3 1 0 2 3 3 5 5
15 15 14 14 14 14 14 14 14 14 13 14 15 8 0 1 1 1 0 5 11 11 9 7 11 11 9 6 6 12 8 4 5 4 11 17 17 12 3 2 4 2 3 5 4 2 4 5 5 6 8 7 7 7 7 6 6 6 5 5 3 1 4 6 4 5 2 2 2 5 11 8 7 7 9 8 11 13 11 8 7 5 2 1 1 3 5 5
15 14 14 14 14 14 15 16 15 14 15 15 9 2 3 3 5 2 3 4 9 13 16 13 10 13 16 16 13 6 3 4 8 7 9 14 11 9 3 3 5 3 3 3 5 3 3 3 7 7 6 5 5 4 7 7 5 5 4 4 1 2 3 6 4 4 4 2 1 8 11 5 6 6 8 12 11 8 7 7 8 8 7 5 3 3 4 5
14 14 14 14 14 15 15 15 16 17 17 13 6 6 3 1 1 8 4 1 7 8 11 12 11 12 12 14 14 5 2 4 5 8 8 13 7 7 6 5 6 4 4 5 6 6 4 4 7 6 6 7 6 4 7 6 4 4 4 5 2 3 0 3 4 3 4 3 4 9 9 4 6 6 8 11 8 6 8 9 10 10 9 8 6 4 3 3
14 13 13 13 14 14 14 17 18 15 10 9 11 11 4 4 7 11 3 2 5 4 7 12 11 9 11 11 8 9 5 5 5 6 8 12 6 5 7 6 6 5 3 6 8 7 4 4 5 8 7 7 6 4 7 6 2 1 3 5 3 3 3 4 3 4 4 4 5 8 7 5 6 8 8 8 6 8 11 12 13 13 11 10 9 10 8 5
13 13 13 12 13 14 16 17 13 6 6 8 10 7 3 7 10 7 1 1 4 4 4 9 6 6 12 11 9 10 4 4 7 6 7 12 9 5 4 4 4 5 5 7 8 5 5 3 6 9 5 6 7 4 5 6 4 2 3 6 7 6 5 5 3 5 5 3 1 5 6 2 4 7 7 6 7 10 12 15 15 13 12 12 11 11 11 10
13 13 12 11 11 13 14 9 4 5 9 8 6 2 3 10 12 3 2 2 3 4 2 5 4 8 11 9 8 8 3 4 9 11 9 12 12 6 4 2 2 4 6 6 4 2 3 4 6 8 6 6 6 4 4 6 6 2 5 8 8 6 5 4 2 2 2 2 2 4 6 2 3 5 6 5 7 12 12 14 14 12 12 11 11 11 11 12
12 12 11 11 11 12 9 4 6 10 6 3 3 3 9 15 8 5 2 4 3 3 5 3 3 10 11 9 11 9 2 3 5 9 9 12 10 4 5 4 2 3 4 4 2 2 4 6 5 6 6 5 5 4 5 6 8 3 6 9 9 7 6 4 4 3 2 3 1 4 5 5 1 3 4 5 6 12 13 13 13 11 12 12 12 12 12 12
12 11 10 10 11 10 9 10 11 9 6 4 4 9 16 16 1 6 3 3 3 1 5 2 3 9 7 8 13 8 4 5 6 4 9 15 10 4 5 6 5 5 4 5 4 3 4 7 8 7 5 4 5 6 8 9 5 5 6 8 8 7 6 5 5 3 1 0 2 6 4 5 1 3 4 4 5 10 11 11 12 11 12 12 12 12 13 12
11 11 11 10 11 11 11 12 11 9 8 8 10 16 19 8 4 3 3 2 4 1 3 2 5 6 4 6 10 6 2 2 4 3 6 12 8 3 4 6 7 7 4 5 6 3 2 6 8 9 6 5 6 6 11 12 5 5 6 7 4 5 4 4 5 3 3 3 3 6 3 5 1 4 3 2 4 7 7 7 9 10 11 12 12 12 12 11
11 11 11 10 11 11 9 12 16 13 10 11 16 20 12 1 4 2 1 2 3 1 2 2 3 5 7 8 6 7 4 1 2 4 4 4 3 3 3 2 5 6 2 3 4 3 1 1 4 5 5 6 5 4 9 12 8 6 8 7 6 5 5 4 3 3 4 1 5 5 1 5 1 3 2 2 4 5 4 5 7 9 11 11 11 11 11 10
12 12 11 10 11 10 7 8 10 5 4 11 20 16 2 3 1 2 3 4 2 2 1 2 3 5 11 10 6 7 5 1 3 7 5 3 4 3 3 2 3 4 3 2 1 3 5 2 1 2 3 4 5 3 2 4 4 6 5 5 5 3 4 4 4 4 4 2 5 3 2 5 3 1 1 5 6 5 4 5 7 9 11 10 10 10 10 10
13 13 13 13 13 12 11 8 3 1 8 18 19 8 3 2 1 2 3 2 0 3 2 1 3 5 10 10 8 9 6 1 3 7 7 5 5 4 4 4 4 4 2 3 1 2 3 2 4 4 2 5 6 3 3 3 2 5 5 6 6 1 2 2 2 0 2 3 2 4 3 4 3 1 4 7 8 7 7 7 9 9 10 10 10 10 9 9
14 15 16 17 16 19 21 18 13 13 17 19 11 1 4 2 2 4 5 2 0 4 3 2 2 6 8 7 7 9 7 3 3 5 6 5 5 5 2 2 6 6 3 3 3 1 2 5 4 2 2 4 7 5 2 0 1 4 5 6 5 3 3 2 1 0 1 2 2 4 3 2 1 2 5 7 8 8 9 10 10 10 10 10 10 10 10 11
16 17 19 20 21 24 25 22 20 18 15 11 3 2 3 2 3 4 5 3 1 3 3 4 2 5 8 6 6 7 5 2 4 6 5 5 6 5 1 0 5 6 4 3 3 3 4 3 4 4 3 4 8 7 7 7 5 4 4 5 5 4 5 4 3 3 3 1 2 5 3 1 2 1 4 6 7 8 9 9 10 10 10 9 9 10 11 11
18 19 20 20 21 23 21 19 19 13 6 3 3 4 3 4 2 1 2 2 2 3 6 8 5 3 6 3 4 8 5 1 4 6 4 6 6 5 4 2 4 4 4 4 3 1 4 4 7 3 2 7 8 5 6 8 5 2 3 6 4 5 6 3 3 4 5 3 3 3 1 0 1 0 2 5 7 8 9 8 9 10 9 8 8 10 10 10
18 18 16 15 18 17 11 12 15 11 5 1 3 2 3 3 2 0 3 5 2 1 7 10 5 4 5 2 4 7 3 3 5 4 2 5 5 4 6 4 4 5 5 4 3 1 3 3 6 2 2 6 7 5 5 6 5 2 2 4 4 4 8 6 2 1 4 5 1 2 2 1 0 1 1 5 7 8 9 9 9 8 8 9 9 9 10 9
16 14 10 12 15 10 5 10 16 14 6 2 3 3 2 1 1 2 2 5 1 2 3 5 2 3 4 3 5 8 4 3 4 3 2 3 2 3 5 3 3 6 6 4 2 2 4 2 5 0 4 3 2 6 5 2 5 5 3 5 3 3 6 5 3 3 4 4 0 1 2 3 1 1 1 5 7 8 8 8 8 8 9 10 9 9 10 10
14 10 8 12 11 6 8 15 20 13 3 2 2 3 2 2 1 3 3 5 2 1 3 3 3 2 5 4 4 7 7 4 3 3 3 2 1 3 5 2 2 6 8 6 2 1 4 1 5 2 2 1 4 7 5 6 3 5 5 5 4 4 2 2 3 2 3 3 0 1 1 1 1 1 2 4 6 8 7 7 7 8 9 9 9 9 10 10
10 5 5 6 4 6 14 21 19 7 2 3 3 2 2 2 1 1 5 3 1 3 5 5 5 2 4 6 4 5 7 6 4 3 3 2 1 2 3 2 2 5 7 7 4 1 3 3 2 4 1 1 4 4 3 1 5 5 5 3 2 3 4 3 3 3 4 4 1 2 1 2 2 2 1 3 6 8 8 7 7 7 8 7 7 8 9 10
5 2 1 1 4 11 20 19 9 1 2 3 2 2 3 3 2 3 8 5 1 2 4 5 3 3 3 5 5 5 5 5 5 3 1 2 2 1 1 1 3 3 5 6 5 1 2 3 2 4 5 1 2 1 3 5 3 4 3 2 1 2 2 3 2 2 4 5 3 3 2 2 1 0 2 6 7 7 8 8 7 6 6 7 7 8 8 8
3 1 1 2 9 18 20 11 2 1 2 1 1 2 3 2 2 8 11 7 4 5 8 9 5 3 3 4 5 4 4 3 3 2 1 1 2 1 1 1 4 4 3 3 3 2 1 2 2 2 4 3 0 2 2 4 5 5 4 3 3 3 4 4 2 1 3 4 4 5 4 2 2 3 4 7 7 7 7 8 8 6 6 7 7 8 8 8
2 1 1 4 14 18 10 2 1 2 2 1 2 3 2 1 3 9 10 8 8 8 9 9 5 3 2 3 4 3 4 3 2 2 2 2 3 2 1 1 3 4 5 3 3 3 3 3 4 2 1 1 3 2 1 2 4 6 4 2 3 3 4 6 4 3 3 3 3 4 2 2 2 4 4 5 7 7 6 7 8 6 6 7 8 8 8 8
1 0 1 7 17 11 2 2 1 1 1 2 3 2 1 1 5 7 8 8 8 6 4 4 3 2 2 2 3 4 5 4 3 1 2 3 2 1 3 1 4 4 4 3 3 2 2 4 4 1 3 3 4 4 3 4 6 6 4 3 2 1 3 5 5 4 4 3 2 4 1 2 3 4 4 5 7 7 6 7 9 6 6 7 8 8 8 8
1 1 1 9 15 4 3 2 2 1 3 2 2 1 2 4 7 9 10 8 5 2 1 1 1 1 1 1 4 5 4 3 3 2 2 3 1 2 5 2 4 3 1 3 5 3 1 2 3 3 3 4 5 5 4 4 4 4 2 4 3 2 4 4 3 4 4 4 4 4 2 2 3 4 5 5 7 8 8 9 8 6 6 7 7 7 7 8
1 0 3 4 10 3 2 3 2 2 3 1 0 2 4 5 7 10 11 8 5 2 1 1 2 1 2 4 6 4 3 4 2 0 2 2 1 2 6 5 2 2 2 3 6 5 3 2 3 4 4 2 1 1 1 1 2 2 2 5 5 4 4 3 3 4 3 4 3 4 3 3 5 6 6 5 6 8 9 8 7 6 7 6 6 6 7 7
1 1 1 1 4 3 2 2 1 2 2 1 1 2 4 5 6 6 7 5 4 2 1 1 3 3 5 7 8 6 6 6 5 3 2 2 1 1 4 5 4 5 9 10 8 6 5 3 4 5 5 4 4 2 2 2 3 3 3 7 7 4 3 3 4 3 5 5 2 1 6 8 7 6 6 5 6 7 7 7 7 7 7 6 6 6 6 7
1 1 2 2 2 2 2 2 1 0 1 2 1 2 4 5 6 3 3 2 2 2 2 2 4 4 4 6 7 4 5 7 8 6 3 1 2 1 4 4 5 5 9 8 5 4 6 4 5 8 8 4 3 3 5 6 7 5 4 7 8 6 4 5 4 2 6 6 1 3 8 9 7 7 7 5 5 6 7 7 7 6 7 6 6 7 7 8
0 1 2 1 1 2 1 2 3 2 1 2 1 2 3 5 5 3 2 1 2 4 3 4 7 6 3 3 5 4 4 7 6 3 2 2 2 2 4 4 5 5 5 5 4 4 7 3 2 7 9 8 6 6 8 10 9 9 10 9 10 9 8 7 4 1 3 4 5 9 11 8 6 7 7 6 5 7 7 7 6 7 7 6 7 8 8 9
1 1 2 1 0 2 2 2 4 4 1 1 1 2 3 5 5 3 2 2 4 6 4 4 7 7 5 4 4 4 3 4 3 0 2 2 2 3 3 2 3 5 5 5 4 3 5 3 2 7 10 9 8 6 7 10 10 10 12 12 11 12 11 10 6 5 6 7 9 13 13 8 5 6 7 7 6 7 7 7 7 8 7 7 8 8 8 9
0 1 2 2 1 0 1 1 4 4 1 2 2 3 4 3 2 2 3 3 2 4 4 6 5 6 8 8 8 5 1 5 6 4 4 3 3 2 2 2 1 3 5 4 2 3 4 4 3 3 7 7 7 6 8 10 12 12 12 10 10 10 9 8 6 6 8 9 11 13 12 7 4 5 7 7 6 7 7 7 7 7 7 7 8 8 8 8
4 4 3 1 1 1 1 1 3 4 1 1 4 4 3 2 0 3 4 4 3 3 3 6 7 8 9 11 12 7 1 4 8 6 5 6 5 2 2 2 3 2 4 3 2 3 4 5 3 1 5 3 3 6 8 10 12 13 11 9 9 6 5 5 4 4 4 8 12 11 7 4 5 6 8 7 7 8 7 7 7 6 7 7 7 7 8 8
7 5 4 1 0 2 1 2 3 2 1 3 5 4 2 2 4 2 5 5 5 5 2 4 7 8 8 10 10 4 1 4 7 6 5 6 7 5 4 4 5 4 3 3 3 3 3 6 4 2 4 3 1 1 3 5 7 7 5 5 5 4 5 5 5 6 4 4 7 5 3 5 7 7 8 7 8 8 7 6 6 6 6 7 7 7 6 6
Wind_Direction
323 320 313 315 317 319 318 318 319 319 321 321 322 325 324 326 326 327 327 326 326 326 326 324 325 325 325 325 327 327 325 321 315 316 281 255 259 259 263 266 288 233 188 163 154 143 118 124 137 137 131 125 110 167 184 149 105 79 101 119 174 204 205 187 196 196 206 279 295 326 7 33 341 95 132 61 49 66 69 43 43 26 19 62 76 124 145 154
317 320 316 314 314 316 316 317 317 317 319 319 322 323 323 325 324 326 325 324 326 324 326 325 324 325 324 326 327 326 325 319 315 299 265 260 265 263 259 256 258 215 190 168 160 147 119 143 154 125 112 123 293 113 157 217 147 135 119 131 209 210 217 198 202 218 230 271 299 311 349 46 274 191 124 90 65 55 74 49 42 53 44 59 89 119 139 154
313 317 318 315 313 313 313 315 315 316 318 318 320 320 322 323 322 324 324 324 323 324 326 324 324 325 324 325 327 324 321 321 319 277 270 272 266 257 252 246 237 207 199 183 166 160 142 164 159 127 91 111 293 101 137 242 183 184 127 147 236 223 241 237 219 233 239 265 302 298 330 31 268 241 80 112 110 57 102 130 99 114 150 136 134 130 148 163
315 316 315 313 312 310 311 312 313 314 315 317 318 319 321 320 322 322 322 323 321 323 324 324 326 323 323 325 324 318 318 322 285 260 279 286 260 249 241 235 223 201 203 196 175 172 146 148 149 118 96 131 314 72 153 230 191 196 147 181 237 205 242 254 216 237 252 245 265 285 329 349 255 233 96 123 101 351 217 199 178 170 171 162 164 159 167 173
315 313 313 313 312 310 310 310 311 313 314 316 316 317 318 318 320 320 321 322 320 322 323 325 324 323 326 324 319 314 322 336 278 270 317 352 306 264 235 224 209 197 199 195 179 157 137 134 133 88 93 152 282 82 218 228 155 184 208 198 221 187 236 262 214 228 247 215 240 289 334 324 257 88 127 135 129 234 216 200 192 174 170 169 168 168 177 181
315 312 313 314 313 309 309 310 310 311 312 314 315 315 317 316 317 318 320 319 319 320 322 325 324 327 327 323 322 305 245 278 300 335 346 338 344 318 231 206 195 191 189 182 164 148 134 119 130 131 118 141 166 178 239 241 143 207 277 241 233 228 241 272 255 254 348 353 286 278 322 312 355 72 157 149 167 229 229 180 174 172 171 165 162 169 181 186
317 315 316 317 314 308 308 309 308 310 311 312 313 313 314 314 315 317 316 318 318 318 321 324 325 329 327 328 328 291 109 265 269 256 277 301 320 323 217 188 186 184 179 165 149 154 142 122 149 147 123 137 177 206 234 309 127 194 257 279 256 237 238 264 282 293 320 300 274 287 326 303 306 321 150 147 249 280 284 158 152 160 162 155 165 181 190 192
317 317 316 315 312 309 311 309 306 309 310 310 311 311 313 312 313 314 314 315 315 317 320 322 326 330 331 336 313 335 71 251 261 265 286 292 304 316 191 178 181 178 169 163 157 158 144 137 165 143 135 190 175 194 207 73 315 189 223 255 267 243 244 267 282 288 289 269 270 323 308 282 277 307 77 25 296 42 112 135 136 147 155 164 182 190 199 202
316 318 317 314 309 305 305 307 307 306 308 309 309 310 310 311 312 312 313 312 313 316 317 320 326 327 326 336 91 317 253 251 270 282 286 282 288 284 180 172 178 173 161 167 163 154 160 163 179 164 162 187 168 178 169 163 242 210 207 231 259 270 271 285 283 277 274 262 269 332 279 276 287 280 339 333 260 116 115 130 138 148 161 178 192 196 201 207
315 316 317 315 311 304 298 301 305 305 307 307 306 309 309 311 310 310 310 309 312 312 314 320 320 325 326 328 124 232 260 268 293 297 279 268 256 202 171 169 174 170 160 163 164 163 176 174 169 157 142 148 174 187 146 161 213 199 189 227 243 268 289 292 280 280 285 257 181 189 253 289 342 283 247 297 175 125 119 134 150 156 169 183 194 203 204 213
314 315 316 315 312 306 300 301 304 304 305 305 306 308 307 309 309 309 309 307 309 309 312 316 316 322 314 339 143 218 268 302 327 15 359 253 211 181 171 174 174 173 165 157 182 184 168 159 149 110 141 152 161 181 188 183 180 172 160 255 267 290 303 257 265 274 248 254 195 179 239 322 21 70 219 234 180 141 131 143 162 165 177 188 194 203 207 221
314 314 313 311 309 306 304 304 305 303 304 305 304 306 307 308 307 306 305 305 306 306 308 309 314 310 281 338 225 231 251 276 141 49 28 306 203 185 176 179 180 182 175 168 201 196 166 166 155 112 205 159 123 176 212 192 161 161 148 254 293 346 327 254 260 253 172 213 185 154 247 305 273 211 259 242 171 145 136 150 167 171 186 191 195 205 212 225
313 313 311 309 307 305 305 305 305 303 304 304 304 306 306 304 304 303 302 302 301 301 303 301 296 276 223 237 242 242 250 249 253 289 292 283 224 200 191 189 191 193 190 185 201 196 182 182 168 156 178 130 157 220 130 93 115 249 115 148 301 2 335 274 297 234 163 167 157 139 241 277 260 259 267 235 161 143 137 158 169 176 193 194 201 206 213 221
311 311 311 310 307 306 305 304 305 304 304 304 305 305 303 303 302 298 297 295 294 295 294 283 238 204 156 250 261 262 258 257 262 266 265 256 224 212 207 202 201 202 203 197 190 201 198 196 149 145 199 136 216 287 21 17 20 239 83 61 1 44 280 298 317 149 151 160 132 123 249 266 262 254 249 212 169 155 151 172 173 179 194 195 206 205 212 218
310 311 311 307 304 306 306 304 306 306 306 305 305 305 303 301 296 294 293 287 286 278 257 220 198 181 44 275 275 276 251 253 254 249 248 231 203 209 216 207 208 208 209 207 202 209 196 191 102 117 264 261 97 14 341 2 13 45 125 305 349 163 259 306 310 155 166 236 86 110 221 278 288 267 263 223 188 173 164 179 177 184 195 194 207 207 207 216
309 311 310 304 302 307 307 305 305 307 308 306 307 306 300 299 296 292 285 274 264 208 188 185 190 182 290 279 286 286 228 229 245 247 241 225 206 199 197 189 195 201 205 211 210 209 183 175 126 138 211 292 115 102 57 20 343 3 115 207 262 158 263 308 306 285 221 196 19 79 166 267 326 324 327 339 203 202 181 188 186 188 194 196 205 205 202 212
308 309 308 303 302 306 308 306 303 306 310 309 310 307 304 306 298 284 266 226 172 172 166 154 172 180 253 272 290 283 238 222 239 244 222 220 212 188 161 154 156 169 177 199 200 207 187 172 162 122 94 83 128 115 92 243 257 325 37 144 200 169 178 280 289 317 27 81 350 8 157 233 303 359 348 358 317 254 217 205 200 198 199 205 208 202 200 205
306 306 304 303 302 305 310 310 307 310 312 311 313 309 311 329 306 245 169 147 123 132 162 179 167 172 262 272 265 253 290 271 247 233 204 205 203 188 161 141 127 126 130 125 174 185 195 172 93 105 121 133 141 117 142 210 188 183 171 125 148 4 231 262 264 274 21 47 52 5 279 270 350 356 345 348 343 272 242 258 225 215 208 209 215 211 208 208
304 304 302 303 306 310 311 311 309 311 314 314 318 315 318 56 78 107 128 143 124 116 187 206 180 164 278 258 249 280 313 310 262 225 191 184 187 186 165 128 114 117 132 128 154 180 150 72 86 144 180 174 172 150 166 197 169 163 164 133 134 94 252 254 257 254 283 71 182 199 231 9 22 3 355 349 358 32 324 332 300 216 214 221 227 219 223 223
304 304 304 305 308 310 309 310 307 309 316 317 327 335 39 108 76 101 112 186 214 226 224 187 196 238 309 267 14 0 333 322 284 216 185 177 167 160 157 117 93 90 140 150 160 184 132 129 178 183 186 189 188 174 161 165 143 134 120 107 114 100 277 265 264 274 259 111 264 171 92 42 28 12 4 352 16 32 9 357 14 28 215 262 274 265 268 252
305 305 306 305 306 308 307 308 307 308 313 313 325 345 166 222 161 140 277 237 240 244 259 234 203 238 269 265 348 15 356 325 329 281 187 175 154 144 184 155 125 127 177 158 134 113 112 152 209 203 190 185 180 170 138 126 119 111 120 108 83 166 257 263 251 297 335 114 317 74 82 42 15 20 14 16 33 27 6 8 14 9 30 9 295 270 279 274
306 305 306 305 306 308 306 305 305 306 303 303 311 298 251 219 132 37 331 265 256 234 240 247 224 246 258 264 285 346 10 280 307 303 184 165 150 158 184 133 149 174 170 129 102 120 137 186 224 211 180 128 102 127 113 112 118 100 118 116 91 232 270 288 279 325 12 92 65 80 83 36 345 1 23 31 38 27 11 28 27 16 21 9 324 267 254 257
305 305 306 305 306 306 306 304 301 300 294 288 255 202 237 174 83 332 328 264 280 229 220 232 228 243 249 261 265 233 184 219 265 292 187 158 152 168 153 133 161 159 148 151 134 146 163 229 223 184 146 114 89 101 104 96 94 95 121 127 209 260 16 290 291 340 12 56 108 106 91 41 348 352 24 28 24 24 27 40 40 33 30 12 350 344 315 270
304 305 306 303 304 305 305 304 300 297 295 278 244 231 260 319 323 325 319 205 281 247 209 208 206 227 232 240 220 175 197 206 198 266 196 160 143 148 149 145 152 146 167 164 138 144 186 227 176 136 141 139 117 112 122 122 115 159 160 140 176 223 186 218 282 343 4 40 110 113 79 24 4 11 15 4 4 29 32 38 39 32 30 27 23 22 15 3
303 302 303 303 305 305 304 304 298 293 309 284 259 260 314 326 328 327 273 293 282 272 223 196 190 224 220 207 174 160 181 218 202 231 202 166 151 137 157 154 140 163 175 146 132 153 210 219 127 125 152 149 133 150 164 156 153 228 219 177 178 177 189 237 318 21 36 40 160 105 79 9 339 19 17 349 13 36 33 35 35 27 26 29 30 29 26 26
302 298 301 303 303 308 308 301 291 314 310 277 246 260 328 332 337 279 185 22 284 262 179 168 178 197 191 173 163 144 110 246 214 207 200 176 165 142 145 161 101 165 164 140 141 161 190 175 129 129 153 157 156 184 203 159 134 209 230 191 177 153 160 232 253 79 81 196 211 93 111 155 321 16 10 340 24 41 37 34 29 25 27 30 31 29 31 31
300 297 301 302 301 312 312 291 306 313 298 225 213 253 307 333 339 199 162 29 287 225 149 175 185 175 177 167 157 138 149 238 185 193 197 174 170 125 132 172 108 149 162 121 150 229 162 157 135 118 128 147 164 195 209 155 128 218 227 172 160 157 168 193 177 166 217 231 329 30 106 121 28 6 337 314 21 40 37 31 25 27 30 31 32 31 32 33
297 299 301 300 297 298 292 290 301 290 237 227 274 292 318 335 326 178 84 55 263 179 137 199 185 164 164 154 156 158 210 186 134 192 191 167 170 95 125 181 152 155 165 122 162 235 159 162 168 148 127 151 190 199 183 153 144 229 201 154 154 158 166 160 141 151 347 36 293 327 48 93 308 294 320 318 30 41 33 28 26 31 33 32 33 31 31 31
298 301 298 296 294 287 285 282 269 256 266 289 302 309 321 331 169 155 57 137 250 272 124 140 161 161 128 139 173 198 239 156 142 179 160 162 177 104 136 184 149 150 163 132 170 210 167 185 176 151 149 192 206 194 167 160 185 210 146 109 97 93 92 100 113 125 45 54 237 286 22 95 259 301 333 341 44 42 29 28 30 36 39 36 32 29 27 27
298 299 294 294 291 289 294 275 259 268 294 301 309 315 318 197 154 79 77 230 266 269 126 143 175 157 135 141 183 215 224 349 126 120 109 148 160 88 112 133 113 131 116 86 164 208 324 214 155 145 173 191 186 170 169 173 171 142 116 82 65 53 46 56 57 91 78 351 257 269 28 104 137 291 330 40 57 51 40 39 38 40 42 39 33 28 25 23
297 297 295 289 284 288 298 279 267 274 300 311 321 321 300 151 96 105 186 233 276 320 38 163 188 139 150 158 168 200 209 341 125 132 128 133 116 100 106 97 77 98 100 77 173 290 348 32 177 222 192 136 111 109 165 188 131 105 110 103 92 30 21 34 357 48 102 242 270 298 19 90 106 241 95 86 83 76 68 57 49 46 43 39 34 29 24 23
298 297 294 285 278 272 257 249 255 241 294 317 328 330 134 116 323 195 236 273 292 290 328 153 209 160 164 169 161 176 172 128 150 139 139 144 142 153 147 159 150 113 160 194 171 316 320 238 262 294 238 132 113 91 40 3 34 90 108 120 118 62 36 59 311 64 156 226 278 333 2 75 85 100 90 92 90 80 74 66 56 51 48 41 33 27 25 23
297 294 290 283 277 267 254 252 264 275 298 317 326 358 100 91 226 214 250 296 218 261 309 359 232 166 165 171 162 172 159 148 180 142 139 137 142 170 153 160 160 135 169 195 138 128 245 276 289 307 264 169 136 134 125 168 179 134 135 143 141 121 116 156 248 201 218 235 302 340 13 87 127 87 79 83 84 79 76 71 63 55 49 42 31 25 24 22
293 290 289 284 277 269 261 260 265 272 296 315 332 93 104 183 233 215 227 257 286 266 314 343 306 146 162 181 160 161 150 137 161 139 140 138 141 176 170 6 171 136 113 143 148 153 156 251 239 176 219 184 159 170 167 155 153 162 155 136 148 154 141 170 192 167 182 197 333 348 36 126 211 95 75 88 88 81 77 73 69 60 48 41 32 25 25 23
295 293 291 284 274 268 261 256 255 252 267 313 69 100 167 210 259 249 242 304 19 320 325 323 310 147 165 193 155 164 158 120 150 132 137 155 154 177 170 179 195 141 111 143 191 152 135 226 248 224 176 165 171 186 147 129 126 185 139 105 156 184 137 129 171 161 154 128 10 355 80 175 269 3 78 102 90 77 73 62 60 57 46 40 31 24 25 23
301 302 294 276 268 268 258 237 226 204 184 133 96 154 213 225 234 185 338 342 53 33 324 321 318 145 162 162 163 185 169 110 152 134 128 158 152 173 180 189 183 155 133 144 189 138 115 252 280 299 179 178 180 173 142 141 146 129 128 152 209 173 117 115 154 80 93 114 39 318 150 125 20 303 128 118 96 77 70 53 46 46 42 37 27 22 22 19
306 307 293 272 273 272 235 198 182 170 173 147 132 203 234 266 221 116 340 304 158 111 343 323 310 157 167 158 169 186 169 125 154 140 139 169 172 176 183 196 162 169 170 148 181 190 144 243 295 267 186 228 170 125 89 65 135 126 163 184 171 88 92 106 122 35 50 113 237 303 153 153 154 243 179 134 109 87 77 62 46 32 33 32 22 18 17 16
303 302 284 280 281 252 196 174 160 155 160 142 179 253 247 232 186 135 220 243 220 272 284 252 239 175 157 171 183 175 166 165 160 132 137 169 221 163 163 171 153 188 188 143 115 222 129 189 295 295 172 315 27 90 69 3 44 129 156 152 113 118 132 87 124 139 109 121 205 40 128 187 179 223 222 167 134 109 93 73 55 35 31 29 17 13 11 12
291 288 287 293 274 197 172 159 153 146 91 143 202 251 254 252 263 224 245 249 252 272 263 235 230 194 157 175 178 160 163 169 158 132 131 144 155 156 168 172 158 202 195 152 140 208 107 124 262 301 296 341 19 62 130 21 23 57 98 84 51 132 153 151 143 146 136 142 151 117 151 236 206 229 244 156 133 121 108 82 64 43 34 31 20 15 9 9
272 264 323 31 175 168 156 151 150 126 123 162 199 217 263 291 352 255 249 254 250 230 254 255 223 167 168 174 167 154 142 142 141 130 130 128 110 131 232 170 142 181 188 164 164 167 70 102 179 307 334 39 65 30 189 176 112 75 97 112 50 70 114 133 95 77 119 140 145 135 184 231 226 302 95 98 102 112 111 96 79 51 38 35 25 22 15 10
270 252 52 134 163 155 147 148 188 165 145 188 206 224 272 327 320 266 258 259 256 224 236 253 239 172 156 156 161 149 105 95 109 109 120 133 117 137 234 146 147 151 137 153 179 172 148 115 130 332 5 54 75 296 246 202 170 142 134 154 147 122 120 115 97 357 89 124 154 152 176 202 29 28 94 109 106 104 105 102 89 58 40 37 26 25 21 13
264 178 64 161 164 156 143 135 216 136 125 179 217 245 288 31 271 269 273 274 259 232 225 238 237 196 147 143 151 125 99 75 48 87 130 136 134 161 248 150 146 136 118 140 197 180 148 100 83 49 37 167 252 294 41 111 121 106 89 105 121 114 119 124 167 207 90 95 141 112 130 179 60 38 64 96 97 92 91 94 87 62 42 37 27 25 23 17
202 142 358 167 165 155 76 39 103 32 205 225 266 268 210 241 261 268 280 278 256 230 216 223 216 176 147 149 133 120 115 88 52 86 130 108 111 287 302 213 141 106 93 136 188 149 99 84 83 31 320 303 297 323 11 49 71 72 49 34 70 88 120 135 166 163 123 137 130 86 112 192 106 75 67 78 87 85 75 73 73 63 44 36 29 25 20 18
196 243 39 165 173 172 10 139 152 255 227 250 296 279 255 259 258 258 265 271 260 244 315 302 262 125 135 123 112 121 139 104 56 35 104 105 117 359 353 19 135 125 117 171 167 144 109 87 91 83 24 357 349 349 2 24 43 62 42 354 351 62 88 113 122 83 107 176 150 121 176 190 118 102 78 77 85 79 69 67 66 62 51 39 33 29 21 19
290 227 36 163 188 229 329 163 151 173 213 266 120 255 268 257 254 248 245 257 268 253 69 315 293 33 74 81 86 76 67 94 98 107 103 83 42 4 2 12 70 120 97 105 111 105 102 96 97 117 131 141 162 229 223 120 41 43 36 7 9 39 57 100 119 83 124 180 135 125 160 141 120 109 83 70 73 72 70 70 66 60 55 44 39 37 27 24
348 109 42 169 200 242 257 209 162 154 183 157 128 265 254 253 277 255 223 239 280 287 94 329 315 23 58 75 82 53 34 66 95 112 108 72 60 340 348 16 47 91 91 77 70 85 95 72 57 95 124 158 180 205 236 132 83 46 7 10 16 14 18 87 115 138 162 146 80 182 156 137 132 122 95 69 61 68 70 66 62 59 52 43 42 43 37 34
349 121 177 170 198 241 263 285 285 146 132 136 149 279 254 260 286 274 205 204 299 332 35 44 19 33 62 85 94 63 31 60 73 85 90 64 110 337 345 25 36 59 89 74 38 76 100 65 35 62 71 76 107 82 57 74 79 70 55 34 27 21 30 76 99 153 148 129 122 185 141 128 131 122 104 87 69 68 63 56 55 55 49 43 40 39 38 35
228 240 228 237 215 194 209 244 202 159 81 118 164 297 283 282 279 262 274 301 359 3 48 41 10 19 41 92 113 104 70 68 53 60 89 50 72 37 1 22 23 24 74 62 21 86 102 67 51 80 70 51 51 66 77 86 80 65 64 55 42 38 47 71 77 32 114 133 160 149 130 116 118 115 101 90 77 69 64 57 55 55 50 46 42 39 35 30
168 236 263 312 4 162 166 190 160 137 139 191 247 288 264 273 277 271 314 11 16 3 53 59 356 7 29 41 97 103 110 113 82 56 141 72 70 80 48 45 25 27 64 64 34 79 96 82 104 100 80 52 33 44 73 88 85 64 55 55 57 58 60 69 72 56 73 98 119 123 114 99 98 108 100 91 81 75 70 61 54 52 49 46 45 41 32 24
120 292 317 13 24 122 102 85 119 116 117 216 236 261 241 253 288 342 5 42 50 348 38 84 56 43 54 58 74 76 191 147 125 147 169 127 96 111 129 168 150 33 43 63 42 23 77 134 183 111 80 52 30 54 74 83 85 69 50 45 53 57 56 57 62 66 74 93 110 112 107 98 99 106 100 95 85 78 73 64 56 50 47 48 47 41 31 20
331 297 308 358 6 354 36 62 101 106 72 214 215 244 247 251 303 78 44 27 71 57 70 114 98 62 56 60 65 61 11 96 102 127 160 135 121 147 149 144 149 87 38 54 60 19 66 133 181 78 87 67 31 77 81 79 81 69 49 40 40 44 54 50 41 44 77 122 126 119 112 120 128 117 102 90 81 76 68 64 62 52 48 50 47 42 32 17
340 314 320 9 42 335 39 98 85 108 204 204 205 241 261 276 302 55 73 10 14 45 53 134 105 74 59 56 55 50 30 84 93 110 130 108 90 93 92 82 91 100 104 106 70 32 90 127 143 97 95 122 195 88 44 48 71 63 34 29 35 51 80 69 35 26 38 124 136 127 124 129 128 122 108 92 83 78 67 62 62 55 53 52 45 42 32 14